Location: Unspecified
(0.0000°N, 0.0000°E)
Time: 14:26:58
(UTC+00:00)

Tiros 1 - All Passes

Search period start: 01 August 2021 00:00
Search period end: 11 August 2021 00:00
Orbit: 630 x 664 km, 48.4° (Epoch: 31 July)

Date Brightness Start Highest point End Pass type
(mag) Time Alt. Az. Time Alt. Az. Time Alt. Az.
01 Aug - 02:18:21 10° NNW 02:22:30 33° NE 02:26:38 10° ESE night (unlit)
01 Aug - 04:01:22 10° W 04:04:30 18° SW 04:07:40 10° S night (unlit)
01 Aug - 14:30:42 10° SSW 14:35:27 64° SE 14:40:12 10° NE daylight
01 Aug - 16:16:38 10° WNW 16:17:33 10° NW 16:18:29 10° NW daylight
02 Aug - 02:43:47 10° NW 02:48:21 69° SW 02:52:57 10° SSE night (unlit)
02 Aug - 13:16:06 10° S 13:19:17 17° SE 13:22:27 10° E daylight
02 Aug - 14:56:53 10° WSW 15:01:19 38° NW 15:05:46 10° NNE daylight
03 Aug - 01:28:15 10° N 01:32:15 29° NE 01:36:15 10° ESE night (unlit)
03 Aug - 03:10:50 10° W 03:14:15 20° SW 03:17:41 10° S night (unlit)
03 Aug - 13:40:30 10° SSW 13:45:11 55° SE 13:49:53 10° NE daylight
03 Aug - 15:25:24 10° WNW 15:27:16 12° NW 15:29:09 10° NNW daylight
04 Aug - 01:53:30 10° NW 01:58:07 80° SW 02:02:44 10° SE night (unlit)
04 Aug - 12:26:12 10° SSE 12:28:59 15° SE 12:31:48 10° E daylight
04 Aug - 14:06:31 10° WSW 14:11:03 43° NW 14:15:36 10° NNE daylight
05 Aug - 00:38:10 10° N 00:42:00 26° NE 00:45:50 10° ESE night (unlit)
05 Aug - 02:20:20 10° WNW 02:23:59 23° SW 02:27:40 10° S night (unlit)
05 Aug - 12:50:19 10° SSW 12:54:55 48° SE 12:59:32 10° NE daylight
05 Aug - 14:34:33 10° W 14:37:00 14° NW 14:39:26 10° NNW daylight
06 Aug - 01:03:15 10° NW 01:07:53 89° NE 01:12:30 10° SE night (unlit)
06 Aug - 11:36:23 10° SSE 11:38:43 13° SE 11:41:03 10° E daylight
06 Aug - 13:16:10 10° SW 13:20:47 49° NW 13:25:25 10° NNE daylight
06 Aug - 23:48:06 10° N 23:51:44 23° NE 23:55:23 10° ESE night (unlit)
07 Aug - 01:29:53 10° WNW 01:33:45 26° SW 01:37:37 10° S night (unlit)
07 Aug - 12:00:09 10° SSW 12:04:40 42° SE 12:09:11 10° ENE daylight
07 Aug - 13:43:51 10° W 13:46:43 16° NW 13:49:34 10° NNW daylight
08 Aug - 00:13:00 10° NW 00:17:38 78° NE 00:22:15 10° SE night (unlit)
08 Aug - 10:46:45 10° SSE 10:48:26 12° SE 10:50:08 10° ESE daylight
08 Aug - 12:25:50 10° SW 12:30:31 57° NW 12:35:13 10° NNE daylight
08 Aug - 22:58:04 10° N 23:01:29 20° NE 23:04:54 10° E night (unlit)
09 Aug - 00:39:26 10° WNW 00:43:29 30° SW 00:47:33 10° S night (unlit)
09 Aug - 11:10:00 10° SSW 11:14:23 37° SE 11:18:47 10° ENE daylight
09 Aug - 12:53:14 10° W 12:56:26 18° NW 12:59:38 10° N daylight
09 Aug - 23:22:46 10° NNW 23:27:23 68° NE 23:31:59 10° SE night (unlit)
10 Aug - 09:57:50 10° SE 09:58:09 10° SE 09:58:29 10° SE daylight
10 Aug - 11:35:32 10° SW 11:40:15 65° NW 11:45:00 10° NNE daylight
10 Aug - 22:08:04 10° N 22:11:14 18° NE 22:14:22 10° E night (unlit)
10 Aug - 23:49:02 10° WNW 23:53:15 34° SW 23:57:26 10° SSE night (unlit)
